N605VV PAYA-KGTF

Flight info

Callsign N605VV
Flight time 3h 5m
Altitude 33000
Route FAKES4 FAKES J541 SSR Q902 ARRUE/N0471F350 Q902 SEA J12 EPH J70 MLP Q142 KEETA
Aircraft CL60/M-SBDE1E2E3FGHIJ1J4J5J7M3RWXYZ/LB1V1D1

Departure

Time 2026-04-20 03:20
Airport Yakutat Airport (PAYA)

Arrival

Time 2026-04-20 06:26
Airport Great Falls International Airport (KGTF)
Time Latitude Longitude Altitude Speed Heading
2026-04-20 02:48 59.50632 -139.66972 33 ft 0 kts 136°
2026-04-20 03:17 59.50632 -139.66971 33 ft 0 kts 136°
2026-04-20 03:17 59.50629 -139.66965 33 ft 3 kts 114°
2026-04-20 03:17 59.50647 -139.66907 33 ft 6 kts 48°
2026-04-20 03:18 59.50689 -139.66821 33 ft 10 kts 42°
2026-04-20 03:18 59.50745 -139.66715 34 ft 11 kts 40°
2026-04-20 03:18 59.50809 -139.66599 34 ft 13 kts 45°
2026-04-20 03:18 59.50873 -139.66469 35 ft 14 kts 45°
2026-04-20 03:19 59.50927 -139.66363 35 ft 9 kts 44°
2026-04-20 03:19 59.50972 -139.66278 35 ft 9 kts 41°
2026-04-20 03:19 59.51002 -139.66200 36 ft 5 kts 108°
2026-04-20 03:19 59.50992 -139.66173 36 ft 0 kts 132°
2026-04-20 03:20 59.50825 -139.65842 36 ft 78 kts 135°
2026-04-20 03:20 59.50254 -139.64711 33 ft 149 kts 134°
2026-04-20 03:20 59.49460 -139.63182 494 ft 168 kts 137°
2026-04-20 03:20 59.48660 -139.61432 1165 ft 181 kts 118°
2026-04-20 03:21 59.48284 -139.59019 1928 ft 194 kts 100°
2026-04-20 03:21 59.48062 -139.56329 2539 ft 209 kts 100°
2026-04-20 03:21 59.47827 -139.53372 3125 ft 234 kts 103°
2026-04-20 03:21 59.47272 -139.50253 3910 ft 248 kts 115°
2026-04-20 03:22 59.46540 -139.47124 4851 ft 258 kts 116°
2026-04-20 03:22 59.45754 -139.43904 5911 ft 264 kts 120°
2026-04-20 03:22 59.44861 -139.40726 6910 ft 272 kts 121°
2026-04-20 03:22 59.43930 -139.37466 7900 ft 279 kts 122°
2026-04-20 03:23 59.42970 -139.34097 8789 ft 288 kts 123°
2026-04-20 03:23 59.41988 -139.30650 9671 ft 296 kts 124°
2026-04-20 03:23 59.40971 -139.27086 10527 ft 305 kts 124°
2026-04-20 03:23 59.39933 -139.23442 11416 ft 311 kts 125°
2026-04-20 03:24 59.38861 -139.19694 11985 ft 328 kts 125°
2026-04-20 03:24 59.37697 -139.15636 12419 ft 348 kts 125°
2026-04-20 03:24 59.36512 -139.11490 13041 ft 359 kts 125°
2026-04-20 03:24 59.35318 -139.07310 13704 ft 367 kts 125°
2026-04-20 03:25 59.34050 -139.02881 14375 ft 375 kts 125°
2026-04-20 03:25 59.32788 -138.98474 15117 ft 379 kts 125°
2026-04-20 03:25 59.31486 -138.93938 15836 ft 383 kts 125°
2026-04-20 03:25 59.30192 -138.89432 16555 ft 386 kts 126°
2026-04-20 03:26 59.28862 -138.84811 17206 ft 390 kts 126°
2026-04-20 03:26 59.27520 -138.80160 17821 ft 395 kts 126°
2026-04-20 03:26 59.26169 -138.75485 18428 ft 398 kts 126°
2026-04-20 03:26 59.24815 -138.70807 19054 ft 401 kts 127°
2026-04-20 03:27 59.23443 -138.66066 19713 ft 401 kts 126°
2026-04-20 03:27 59.22073 -138.61351 20284 ft 404 kts 127°
2026-04-20 03:27 59.20682 -138.56581 20802 ft 408 kts 127°
2026-04-20 03:27 59.19350 -138.52016 21119 ft 417 kts 126°
2026-04-20 03:28 59.17902 -138.47075 21543 ft 422 kts 126°
2026-04-20 03:28 59.16461 -138.42152 22098 ft 423 kts 127°
2026-04-20 03:28 59.13522 -138.32152 23155 ft 426 kts 128°
2026-04-20 03:29 59.12027 -138.27083 23696 ft 428 kts 128°
2026-04-20 03:29 59.10544 -138.22061 24233 ft 430 kts 128°
2026-04-20 03:29 59.09058 -138.17017 24837 ft 429 kts 128°
2026-04-20 03:29 59.07560 -138.11977 25292 ft 433 kts 128°
2026-04-20 03:30 59.06058 -138.06938 25629 ft 439 kts 128°
2026-04-20 03:30 59.04526 -138.01807 26029 ft 443 kts 128°
2026-04-20 03:30 59.02980 -137.96634 26460 ft 445 kts 129°
2026-04-20 03:30 59.01426 -137.91444 26828 ft 449 kts 128°
2026-04-20 03:31 58.99833 -137.86147 27089 ft 455 kts 128°
2026-04-20 03:31 58.98258 -137.80905 27414 ft 458 kts 128°
2026-04-20 03:31 58.96657 -137.75563 27789 ft 460 kts 128°
2026-04-20 03:31 58.95050 -137.70200 28153 ft 462 kts 128°
2026-04-20 03:32 58.93446 -137.64859 28541 ft 463 kts 128°
2026-04-20 03:32 58.91814 -137.59438 28819 ft 467 kts 128°
2026-04-20 03:32 58.90264 -137.54275 28938 ft 473 kts 128°
2026-04-20 03:32 58.88598 -137.48759 29239 ft 476 kts 127°
2026-04-20 03:33 58.86991 -137.43466 29656 ft 474 kts 127°
2026-04-20 03:33 58.85313 -137.37946 30035 ft 474 kts 128°
2026-04-20 03:33 58.83637 -137.32448 30298 ft 477 kts 128°
2026-04-20 03:33 58.81953 -137.26939 30530 ft 480 kts 128°
2026-04-20 03:34 58.80244 -137.21359 30738 ft 483 kts 128°
2026-04-20 03:34 58.78534 -137.15788 31015 ft 484 kts 128°
2026-04-20 03:34 58.76828 -137.10242 31301 ft 484 kts 128°
2026-04-20 03:34 58.75104 -137.04651 31602 ft 484 kts 128°
2026-04-20 03:35 58.73389 -136.99100 31855 ft 485 kts 128°
2026-04-20 03:35 58.71661 -136.93520 32115 ft 486 kts 128°
2026-04-20 03:35 58.69939 -136.87978 32249 ft 489 kts 128°
2026-04-20 03:35 58.68198 -136.82385 32491 ft 490 kts 128°
2026-04-20 03:36 58.66441 -136.76755 32673 ft 491 kts 128°
2026-04-20 03:36 58.64684 -136.71135 32905 ft 492 kts 128°
2026-04-20 03:36 58.61154 -136.59898 32983 ft 500 kts 127°
2026-04-20 03:37 58.57518 -136.48378 33025 ft 508 kts 127°
2026-04-20 03:37 58.53841 -136.36780 33030 ft 513 kts 127°
2026-04-20 03:38 58.50120 -136.25092 33021 ft 514 kts 128°
2026-04-20 03:38 58.46378 -136.13397 33033 ft 514 kts 128°
2026-04-20 03:39 58.42642 -136.01784 33033 ft 513 kts 128°
2026-04-20 03:39 58.38907 -135.90233 33041 ft 514 kts 128°
2026-04-20 03:40 58.35155 -135.78685 33034 ft 514 kts 127°
2026-04-20 03:40 58.31410 -135.67212 33038 ft 514 kts 128°
2026-04-20 03:41 58.27626 -135.55679 33041 ft 514 kts 128°
2026-04-20 03:41 58.23839 -135.44194 33037 ft 515 kts 127°
2026-04-20 03:42 58.20006 -135.32840 33028 ft 512 kts 131°
2026-04-20 03:42 58.15435 -135.23189 33006 ft 501 kts 145°
2026-04-20 03:43 58.09927 -135.15337 33010 ft 494 kts 152°
2026-04-20 03:43 58.04346 -135.07872 33007 ft 494 kts 152°
2026-04-20 03:44 57.98737 -135.00395 33013 ft 494 kts 152°
2026-04-20 03:44 57.93118 -134.92937 33015 ft 495 kts 151°
2026-04-20 03:45 57.87519 -134.85532 33015 ft 496 kts 151°
2026-04-20 03:45 57.81867 -134.78085 33028 ft 496 kts 151°
2026-04-20 03:46 57.76234 -134.70692 33032 ft 497 kts 151°
2026-04-20 03:46 57.70568 -134.63286 33027 ft 497 kts 151°
2026-04-20 03:47 57.65035 -134.56081 33024 ft 497 kts 151°
2026-04-20 03:47 57.59366 -134.48726 33027 ft 498 kts 150°
2026-04-20 03:48 57.53733 -134.41447 33024 ft 499 kts 150°
2026-04-20 03:48 57.48052 -134.34134 33022 ft 499 kts 151°
2026-04-20 03:49 57.42346 -134.26816 33017 ft 499 kts 151°
2026-04-20 03:49 57.36614 -134.19493 33018 ft 499 kts 151°
2026-04-20 03:50 57.30903 -134.12227 33021 ft 500 kts 151°
2026-04-20 03:50 57.25167 -134.04956 33025 ft 500 kts 151°
2026-04-20 03:51 57.19419 -133.97697 33029 ft 500 kts 151°
2026-04-20 03:51 57.13691 -133.90491 33032 ft 500 kts 151°
2026-04-20 03:52 57.07939 -133.83283 33025 ft 500 kts 150°
2026-04-20 03:52 57.02152 -133.76059 33014 ft 501 kts 150°
2026-04-20 03:53 56.96426 -133.68938 33012 ft 502 kts 150°
2026-04-20 03:53 56.90658 -133.61792 33011 ft 502 kts 150°
2026-04-20 03:54 56.84873 -133.54652 33009 ft 502 kts 150°
2026-04-20 03:54 56.79092 -133.47545 32993 ft 501 kts 150°
2026-04-20 03:55 56.73305 -133.40454 33010 ft 501 kts 150°
2026-04-20 03:55 56.67521 -133.33397 33028 ft 502 kts 151°
2026-04-20 03:56 56.61727 -133.26352 33037 ft 503 kts 151°
2026-04-20 03:56 56.56009 -133.19426 33040 ft 503 kts 150°
2026-04-20 03:57 56.50208 -133.12427 33043 ft 502 kts 150°
2026-04-20 03:57 56.44338 -133.05559 33041 ft 501 kts 152°
2026-04-20 03:58 56.38388 -132.98947 33047 ft 501 kts 152°
2026-04-20 03:58 56.32467 -132.92387 33045 ft 501 kts 152°
2026-04-20 03:59 56.26552 -132.85860 33048 ft 501 kts 152°
2026-04-20 03:59 56.20599 -132.79312 33048 ft 502 kts 152°
2026-04-20 04:00 56.14638 -132.72778 33048 ft 502 kts 152°
2026-04-20 04:00 56.08678 -132.66270 33044 ft 501 kts 152°
2026-04-20 04:01 56.02737 -132.59805 33050 ft 501 kts 152°
2026-04-20 04:01 55.96777 -132.53346 33052 ft 501 kts 152°
2026-04-20 04:02 55.90841 -132.46935 33047 ft 502 kts 152°
2026-04-20 04:02 55.84866 -132.40505 33039 ft 502 kts 151°
2026-04-20 04:03 55.78896 -132.34102 33038 ft 501 kts 152°
2026-04-20 04:03 55.72990 -132.27791 33050 ft 500 kts 152°
2026-04-20 04:04 55.67027 -132.21443 33049 ft 500 kts 152°
2026-04-20 04:04 55.61034 -132.15086 33046 ft 499 kts 152°
2026-04-20 04:05 55.55121 -132.08838 33050 ft 499 kts 152°
2026-04-20 04:05 55.49139 -132.02539 33051 ft 499 kts 152°
2026-04-20 04:06 55.43167 -131.96274 33050 ft 500 kts 152°
2026-04-20 04:06 55.37364 -131.90207 33044 ft 500 kts 151°
2026-04-20 04:07 55.31383 -131.83975 33045 ft 499 kts 151°
2026-04-20 04:07 55.25378 -131.77740 33045 ft 499 kts 151°
2026-04-20 04:08 55.19424 -131.71580 33042 ft 499 kts 151°
2026-04-20 04:08 55.13467 -131.65440 33047 ft 499 kts 151°
2026-04-20 04:09 55.07448 -131.59258 33045 ft 499 kts 151°
2026-04-20 04:09 55.01532 -131.52972 33043 ft 499 kts 149°
2026-04-20 04:10 54.98591 -131.49745 33223 ft 495 kts 148°
2026-04-20 04:10 54.95697 -131.46504 33212 ft 500 kts 148°
2026-04-20 04:10 54.92733 -131.43243 31811 ft 510 kts 149°
2026-04-20 04:10 54.89795 -131.40167 32564 ft 477 kts 150°
2026-04-20 04:11 54.86937 -131.37245 32781 ft 478 kts 149°
2026-04-20 04:11 54.84313 -131.34450 32990 ft 479 kts 150°
2026-04-20 04:11 54.78603 -131.28352 33029 ft 488 kts 150°
2026-04-20 04:12 54.72779 -131.22156 33031 ft 496 kts 150°
2026-04-20 04:12 54.67054 -131.15416 33030 ft 499 kts 143°
2026-04-20 04:13 54.61521 -131.08133 33032 ft 498 kts 148°
2026-04-20 04:13 54.55602 -131.01915 33032 ft 496 kts 150°
2026-04-20 04:14 54.49709 -130.95798 33032 ft 495 kts 150°
2026-04-20 04:14 54.43814 -130.89702 33030 ft 495 kts 150°
2026-04-20 04:15 54.37937 -130.83643 33027 ft 495 kts 149°
2026-04-20 04:15 54.32020 -130.77562 33032 ft 495 kts 149°
2026-04-20 04:16 54.26300 -130.71704 33032 ft 494 kts 149°
2026-04-20 04:16 54.20381 -130.65663 33031 ft 494 kts 149°
2026-04-20 04:17 54.14608 -130.59788 33030 ft 494 kts 149°
2026-04-20 04:17 54.08727 -130.53825 33026 ft 494 kts 149°
2026-04-20 04:18 54.02818 -130.47853 33020 ft 494 kts 149°
2026-04-20 04:18 53.96906 -130.41898 33024 ft 493 kts 149°
2026-04-20 04:19 53.90966 -130.35933 33025 ft 493 kts 149°
2026-04-20 04:19 53.85061 -130.30025 33024 ft 492 kts 150°
2026-04-20 04:20 53.79161 -130.24141 33020 ft 492 kts 150°
2026-04-20 04:20 53.73277 -130.18291 33017 ft 492 kts 150°
2026-04-20 04:21 53.67363 -130.12433 33015 ft 492 kts 149°
2026-04-20 04:21 53.61426 -130.06569 33012 ft 492 kts 149°
2026-04-20 04:22 53.55513 -130.00749 33018 ft 492 kts 149°
2026-04-20 04:22 53.49610 -129.94957 33018 ft 492 kts 149°
2026-04-20 04:23 53.43840 -129.89316 33012 ft 491 kts 149°
2026-04-20 04:23 53.37953 -129.83577 33013 ft 490 kts 149°
2026-04-20 04:24 53.32066 -129.77856 33007 ft 490 kts 149°
2026-04-20 04:24 53.26190 -129.72165 33007 ft 490 kts 149°
2026-04-20 04:25 53.20277 -129.66458 33010 ft 489 kts 149°
2026-04-20 04:25 53.14408 -129.60809 33002 ft 489 kts 149°
2026-04-20 04:26 53.08504 -129.55145 33005 ft 488 kts 149°
2026-04-20 04:26 53.02615 -129.49509 32999 ft 488 kts 148°
2026-04-20 04:27 52.96744 -129.43851 33002 ft 488 kts 148°
2026-04-20 04:27 52.90903 -129.38238 32998 ft 488 kts 148°
2026-04-20 04:28 52.85005 -129.32590 32994 ft 487 kts 149°
2026-04-20 04:28 52.79334 -129.27176 32995 ft 487 kts 149°
2026-04-20 04:29 52.73457 -129.21582 32991 ft 487 kts 149°
2026-04-20 04:29 52.67565 -129.15991 32987 ft 488 kts 149°
2026-04-20 04:30 52.61689 -129.10432 32991 ft 488 kts 149°
2026-04-20 04:30 52.55779 -129.04860 32990 ft 488 kts 149°
2026-04-20 04:31 52.49919 -128.99352 32989 ft 487 kts 149°
2026-04-20 04:31 52.44053 -128.93855 32990 ft 487 kts 149°
2026-04-20 04:32 52.38145 -128.88336 32984 ft 487 kts 150°
2026-04-20 04:32 52.32280 -128.82875 32987 ft 487 kts 150°
2026-04-20 04:33 52.26385 -128.77403 32988 ft 487 kts 150°
2026-04-20 04:33 52.20462 -128.71919 32984 ft 487 kts 150°
2026-04-20 04:34 52.14586 -128.66492 32986 ft 486 kts 150°
2026-04-20 04:34 52.08747 -128.61114 32987 ft 486 kts 150°
2026-04-20 04:35 52.02864 -128.55714 32979 ft 486 kts 150°
2026-04-20 04:35 51.96991 -128.50340 32977 ft 486 kts 150°
2026-04-20 04:36 51.88264 -128.42383 32973 ft 486 kts 150°
2026-04-20 04:37 51.82350 -128.37012 32980 ft 486 kts 150°
2026-04-20 04:37 51.76493 -128.31706 32966 ft 486 kts 151°
2026-04-20 04:38 51.70621 -128.26405 32962 ft 486 kts 151°
2026-04-20 04:38 51.64727 -128.21098 32963 ft 486 kts 151°
2026-04-20 04:39 51.58849 -128.15823 32961 ft 486 kts 152°
2026-04-20 04:39 51.52936 -128.10533 32969 ft 486 kts 152°
2026-04-20 04:40 51.47028 -128.05263 32950 ft 486 kts 152°
2026-04-20 04:40 51.41258 -128.00131 32938 ft 486 kts 152°
2026-04-20 04:41 51.35341 -127.94883 32944 ft 485 kts 152°
2026-04-20 04:41 51.29438 -127.89664 32943 ft 485 kts 152°
2026-04-20 04:42 51.23551 -127.84473 32946 ft 484 kts 152°
2026-04-20 04:42 51.17686 -127.79317 32944 ft 484 kts 152°
2026-04-20 04:43 51.11805 -127.74163 32954 ft 483 kts 152°
2026-04-20 04:43 51.05892 -127.68996 32936 ft 483 kts 152°
2026-04-20 04:44 51.00045 -127.63902 32942 ft 482 kts 152°
2026-04-20 04:44 50.94155 -127.58784 32945 ft 482 kts 152°
2026-04-20 04:45 50.88279 -127.53694 32953 ft 481 kts 152°
2026-04-20 04:45 50.82418 -127.48631 32951 ft 480 kts 152°
2026-04-20 04:46 50.76545 -127.43573 32947 ft 480 kts 152°
2026-04-20 04:46 50.70825 -127.38203 32950 ft 480 kts 144°
2026-04-20 04:47 50.65963 -127.31099 32950 ft 481 kts 131°
2026-04-20 04:47 50.61924 -127.22695 32946 ft 481 kts 127°
2026-04-20 04:48 50.57932 -127.14226 32948 ft 480 kts 127°
2026-04-20 04:48 50.53936 -127.05776 32945 ft 479 kts 127°
2026-04-20 04:49 50.49956 -126.97381 32938 ft 476 kts 127°
2026-04-20 04:49 50.46011 -126.89087 32950 ft 474 kts 127°
2026-04-20 04:50 50.42059 -126.80803 32955 ft 474 kts 127°
2026-04-20 04:50 50.38130 -126.72592 32948 ft 473 kts 127°
2026-04-20 04:51 50.34170 -126.64343 32954 ft 472 kts 127°
2026-04-20 04:51 50.30249 -126.56198 32962 ft 471 kts 127°
2026-04-20 04:52 50.26314 -126.48049 32982 ft 471 kts 127°
2026-04-20 04:52 50.22344 -126.39853 32997 ft 472 kts 127°
2026-04-20 04:53 50.18416 -126.31769 32992 ft 472 kts 128°
2026-04-20 04:53 50.14439 -126.23611 33001 ft 472 kts 127°
2026-04-20 04:54 50.10468 -126.15486 32992 ft 473 kts 127°
2026-04-20 04:54 50.06500 -126.07394 32990 ft 473 kts 127°
2026-04-20 04:55 50.02502 -125.99266 32983 ft 472 kts 127°
2026-04-20 04:55 49.98531 -125.91217 32972 ft 472 kts 127°
2026-04-20 04:56 49.94535 -125.83144 32968 ft 472 kts 127°
2026-04-20 04:56 49.90524 -125.75063 32962 ft 473 kts 128°
2026-04-20 04:57 49.86536 -125.67053 32962 ft 473 kts 128°
2026-04-20 04:57 49.82531 -125.59035 32968 ft 473 kts 128°
2026-04-20 04:58 49.78585 -125.51157 32965 ft 473 kts 128°
2026-04-20 04:58 49.74572 -125.43169 32962 ft 473 kts 128°
2026-04-20 04:59 49.70537 -125.35162 32952 ft 474 kts 128°
2026-04-20 04:59 49.66478 -125.27134 32950 ft 474 kts 128°
2026-04-20 05:00 49.62496 -125.19280 32947 ft 474 kts 129°
2026-04-20 05:00 49.58443 -125.11312 32943 ft 474 kts 129°
2026-04-20 05:01 49.54358 -125.03321 32947 ft 474 kts 129°
2026-04-20 05:01 49.50294 -124.95396 32956 ft 473 kts 129°
2026-04-20 05:02 49.46230 -124.87495 32942 ft 472 kts 129°
2026-04-20 05:02 49.42182 -124.79649 32930 ft 472 kts 129°
2026-04-20 05:03 49.38113 -124.71783 32931 ft 472 kts 129°
2026-04-20 05:03 49.34012 -124.63880 32932 ft 472 kts 129°
2026-04-20 05:04 49.29935 -124.56047 32935 ft 472 kts 129°
2026-04-20 05:04 49.25865 -124.48251 32947 ft 472 kts 129°
2026-04-20 05:05 49.21773 -124.40435 32946 ft 472 kts 129°
2026-04-20 05:05 49.17681 -124.32642 32943 ft 471 kts 130°
2026-04-20 05:06 49.13561 -124.24818 32938 ft 471 kts 130°
2026-04-20 05:06 49.09449 -124.17032 33321 ft 466 kts 130°
2026-04-20 05:06 49.07412 -124.13183 33932 ft 457 kts 130°
2026-04-20 05:07 49.05444 -124.09470 34535 ft 449 kts 130°
2026-04-20 05:07 49.03500 -124.05806 34850 ft 447 kts 130°
2026-04-20 05:07 49.01537 -124.02113 34922 ft 451 kts 130°
2026-04-20 05:08 48.97551 -123.94630 34930 ft 461 kts 130°
2026-04-20 05:08 48.93462 -123.86974 34925 ft 467 kts 130°
2026-04-20 05:09 48.89405 -123.79399 34924 ft 468 kts 130°
2026-04-20 05:09 48.85281 -123.71722 34919 ft 467 kts 130°
2026-04-20 05:10 48.81215 -123.64172 34925 ft 465 kts 130°
2026-04-20 05:10 48.77127 -123.56603 34921 ft 465 kts 130°
2026-04-20 05:11 48.72847 -123.49322 34919 ft 463 kts 139°
2026-04-20 05:11 48.67738 -123.43781 34919 ft 460 kts 149°
2026-04-20 05:12 48.62291 -123.38696 34920 ft 460 kts 149°
2026-04-20 05:12 48.56851 -123.33624 34925 ft 459 kts 150°
2026-04-20 05:13 48.51507 -123.28654 34926 ft 458 kts 150°
2026-04-20 05:13 48.46077 -123.23617 34930 ft 458 kts 150°
2026-04-20 05:14 48.40658 -123.18602 34927 ft 457 kts 150°
2026-04-20 05:14 48.35244 -123.13611 34931 ft 457 kts 150°
2026-04-20 05:15 48.29861 -123.08669 34929 ft 456 kts 149°
2026-04-20 05:15 48.24458 -123.03712 34926 ft 455 kts 149°
2026-04-20 05:16 48.19066 -122.98777 34927 ft 455 kts 149°
2026-04-20 05:16 48.13660 -122.93842 34927 ft 455 kts 150°
2026-04-20 05:17 48.08265 -122.88930 34929 ft 455 kts 149°
2026-04-20 05:17 48.02882 -122.84039 34922 ft 454 kts 149°
2026-04-20 05:18 47.97456 -122.79123 34915 ft 454 kts 149°
2026-04-20 05:18 47.92086 -122.74269 34914 ft 454 kts 150°
2026-04-20 05:19 47.86662 -122.69379 34911 ft 454 kts 150°
2026-04-20 05:19 47.81416 -122.64660 34916 ft 455 kts 150°
2026-04-20 05:20 47.75998 -122.59799 34921 ft 455 kts 150°
2026-04-20 05:20 47.70615 -122.54981 34926 ft 455 kts 150°
2026-04-20 05:21 47.65165 -122.50115 34937 ft 455 kts 150°
2026-04-20 05:21 47.59762 -122.45303 34937 ft 454 kts 150°
2026-04-20 05:22 47.54541 -122.40353 34937 ft 455 kts 144°
2026-04-20 05:22 47.49944 -122.33857 34937 ft 459 kts 132°
2026-04-20 05:23 47.46503 -122.26197 34940 ft 464 kts 120°
2026-04-20 05:23 47.44239 -122.17406 34938 ft 469 kts 107°
2026-04-20 05:24 47.43353 -122.07864 34942 ft 475 kts 94°
2026-04-20 05:24 47.43259 -121.98086 34947 ft 476 kts 93°
2026-04-20 05:25 47.43161 -121.88298 34951 ft 477 kts 93°
2026-04-20 05:25 47.43056 -121.78770 34965 ft 476 kts 93°
2026-04-20 05:26 47.42939 -121.68973 34972 ft 477 kts 93°
2026-04-20 05:26 47.42813 -121.59181 34988 ft 477 kts 93°
2026-04-20 05:27 47.42679 -121.49449 35002 ft 478 kts 93°
2026-04-20 05:27 47.42535 -121.39652 35003 ft 478 kts 93°
2026-04-20 05:28 47.42383 -121.29861 35011 ft 478 kts 94°
2026-04-20 05:28 47.42224 -121.20187 35020 ft 478 kts 94°
2026-04-20 05:29 47.42054 -121.10366 35028 ft 478 kts 94°
2026-04-20 05:29 47.41876 -121.00610 35041 ft 478 kts 94°
2026-04-20 05:30 47.41689 -120.90765 35049 ft 478 kts 94°
2026-04-20 05:30 47.41495 -120.81022 35040 ft 479 kts 94°
2026-04-20 05:31 47.41291 -120.71205 35040 ft 479 kts 94°
2026-04-20 05:31 47.41078 -120.61388 35000 ft 480 kts 94°
2026-04-20 05:32 47.40857 -120.51538 34976 ft 480 kts 94°
2026-04-20 05:32 47.40626 -120.41688 34967 ft 480 kts 94°
2026-04-20 05:33 47.40390 -120.31934 34965 ft 481 kts 94°
2026-04-20 05:33 47.40142 -120.22065 34950 ft 481 kts 94°
2026-04-20 05:34 47.39888 -120.12261 34957 ft 481 kts 94°
2026-04-20 05:34 47.39487 -119.97433 34936 ft 482 kts 94°
2026-04-20 05:35 47.39211 -119.87626 34930 ft 482 kts 94°
2026-04-20 05:35 47.38924 -119.77732 34924 ft 483 kts 94°
2026-04-20 05:36 47.38628 -119.67828 34917 ft 483 kts 94°
2026-04-20 05:36 47.38325 -119.57953 34905 ft 483 kts 94°
2026-04-20 05:37 47.38021 -119.48334 34907 ft 483 kts 94°
2026-04-20 05:37 47.37926 -119.38457 34905 ft 485 kts 88°
2026-04-20 05:38 47.38301 -119.28637 34900 ft 485 kts 89°
2026-04-20 05:38 47.38667 -119.18646 34901 ft 485 kts 89°
2026-04-20 05:39 47.39019 -119.08721 34907 ft 486 kts 89°
2026-04-20 05:39 47.39362 -118.98795 34911 ft 486 kts 89°
2026-04-20 05:40 47.39695 -118.88852 34917 ft 486 kts 89°
2026-04-20 05:40 47.40018 -118.78914 34913 ft 486 kts 88°
2026-04-20 05:41 47.40332 -118.68963 34919 ft 486 kts 88°
2026-04-20 05:41 47.40637 -118.59006 34919 ft 486 kts 89°
2026-04-20 05:42 47.40932 -118.49083 34923 ft 486 kts 89°
2026-04-20 05:42 47.41219 -118.39133 34929 ft 487 kts 89°
2026-04-20 05:43 47.41495 -118.29242 34927 ft 487 kts 89°
2026-04-20 05:43 47.41768 -118.19138 34931 ft 487 kts 89°
2026-04-20 05:44 47.42028 -118.09214 34932 ft 487 kts 89°
2026-04-20 05:44 47.42281 -117.99207 34941 ft 487 kts 89°
2026-04-20 05:45 47.42523 -117.89281 34950 ft 487 kts 89°
2026-04-20 05:45 47.42759 -117.79281 34958 ft 487 kts 89°
2026-04-20 05:46 47.42984 -117.69308 34962 ft 488 kts 89°
2026-04-20 05:46 47.43202 -117.59308 34959 ft 488 kts 89°
2026-04-20 05:47 47.43411 -117.49316 34958 ft 489 kts 89°
2026-04-20 05:47 47.43612 -117.39304 34957 ft 489 kts 89°
2026-04-20 05:48 47.43802 -117.29379 34957 ft 489 kts 90°
2026-04-20 05:48 47.43985 -117.19374 34958 ft 488 kts 90°
2026-04-20 05:49 47.44159 -117.09379 34956 ft 489 kts 90°
2026-04-20 05:49 47.44324 -116.99365 34957 ft 489 kts 90°
2026-04-20 05:50 47.44481 -116.89317 34958 ft 490 kts 90°
2026-04-20 05:50 47.44629 -116.79314 34961 ft 490 kts 90°
2026-04-20 05:51 47.44769 -116.69256 34972 ft 490 kts 90°
2026-04-20 05:51 47.44899 -116.59270 34980 ft 490 kts 90°
2026-04-20 05:52 47.45021 -116.49196 34981 ft 490 kts 90°
2026-04-20 05:52 47.45135 -116.39151 34983 ft 490 kts 90°
2026-04-20 05:53 47.45239 -116.29155 34985 ft 489 kts 91°
2026-04-20 05:53 47.45335 -116.19001 34981 ft 489 kts 90°
2026-04-20 05:54 47.45422 -116.08987 34978 ft 490 kts 90°
2026-04-20 05:54 47.45499 -115.98962 34987 ft 490 kts 90°
2026-04-20 05:55 47.45569 -115.88880 34994 ft 490 kts 90°
2026-04-20 05:55 47.45629 -115.78861 35034 ft 490 kts 90°
2026-04-20 05:56 47.45681 -115.68800 35047 ft 491 kts 91°
2026-04-20 05:56 47.45547 -115.58759 35051 ft 491 kts 94°
2026-04-20 05:57 47.45242 -115.48701 35052 ft 492 kts 94°
2026-04-20 05:57 47.44931 -115.38654 35047 ft 492 kts 94°
2026-04-20 05:58 47.44616 -115.28659 35050 ft 493 kts 95°
2026-04-20 05:58 47.44286 -115.18538 35040 ft 494 kts 95°
2026-04-20 05:59 47.43947 -115.08392 35031 ft 494 kts 95°
2026-04-20 05:59 47.43601 -114.98280 35026 ft 495 kts 95°
2026-04-20 06:00 47.43243 -114.88126 35048 ft 495 kts 95°
2026-04-20 06:00 47.42879 -114.78003 35075 ft 495 kts 95°
2026-04-20 06:01 47.42505 -114.67857 35079 ft 496 kts 95°
2026-04-20 06:01 47.42125 -114.57770 35066 ft 496 kts 95°
2026-04-20 06:02 47.41732 -114.47603 35059 ft 496 kts 95°
2026-04-20 06:02 47.41331 -114.37447 35046 ft 495 kts 95°
2026-04-20 06:03 47.40927 -114.27404 35028 ft 496 kts 96°
2026-04-20 06:03 47.40508 -114.17254 35039 ft 497 kts 96°
2026-04-20 06:04 47.40085 -114.07217 35046 ft 498 kts 96°
2026-04-20 06:04 47.39647 -113.97025 35054 ft 499 kts 96°
2026-04-20 06:05 47.39196 -113.86769 35073 ft 499 kts 96°
2026-04-20 06:05 47.38743 -113.76636 35087 ft 499 kts 96°
2026-04-20 06:06 47.38277 -113.66434 35098 ft 500 kts 96°
2026-04-20 06:06 47.37801 -113.56218 35092 ft 500 kts 96°
2026-04-20 06:07 47.37314 -113.45968 35094 ft 501 kts 96°
2026-04-20 06:07 47.37071 -113.40911 34899 ft 502 kts 96°
2026-04-20 06:07 47.36821 -113.35765 34293 ft 496 kts 96°
2026-04-20 06:08 47.36589 -113.31001 33747 ft 489 kts 96°
2026-04-20 06:08 47.36342 -113.25998 33156 ft 485 kts 96°
2026-04-20 06:08 47.36096 -113.21062 32519 ft 483 kts 96°
2026-04-20 06:08 47.35847 -113.16124 31908 ft 481 kts 96°
2026-04-20 06:09 47.35601 -113.11269 31249 ft 477 kts 96°
2026-04-20 06:09 47.35355 -113.06445 30662 ft 471 kts 96°
2026-04-20 06:09 47.35109 -113.01672 30024 ft 467 kts 96°
2026-04-20 06:09 47.34861 -112.96902 29423 ft 463 kts 96°
2026-04-20 06:10 47.34614 -112.92186 28771 ft 460 kts 96°
2026-04-20 06:10 47.34434 -112.87558 28193 ft 456 kts 90°
2026-04-20 06:10 47.34623 -112.82917 27562 ft 454 kts 86°
2026-04-20 06:10 47.34864 -112.78271 26969 ft 449 kts 86°
2026-04-20 06:11 47.35094 -112.73685 26331 ft 447 kts 86°
2026-04-20 06:11 47.35318 -112.69164 25756 ft 442 kts 86°
2026-04-20 06:11 47.35539 -112.64680 25166 ft 439 kts 87°
2026-04-20 06:11 47.35755 -112.60236 24563 ft 435 kts 87°
2026-04-20 06:12 47.35970 -112.55761 24005 ft 430 kts 87°
2026-04-20 06:12 47.36176 -112.51448 23421 ft 427 kts 87°
2026-04-20 06:12 47.36382 -112.47082 22864 ft 422 kts 87°
2026-04-20 06:12 47.36583 -112.42798 22283 ft 418 kts 87°
2026-04-20 06:13 47.36780 -112.38562 21735 ft 413 kts 86°
2026-04-20 06:13 47.36973 -112.34358 21184 ft 408 kts 87°
2026-04-20 06:13 47.37154 -112.30391 20662 ft 404 kts 87°
2026-04-20 06:13 47.37335 -112.26399 20130 ft 400 kts 87°
2026-04-20 06:14 47.37516 -112.22366 19595 ft 395 kts 87°
2026-04-20 06:14 47.37696 -112.18316 19083 ft 390 kts 86°
2026-04-20 06:14 47.37872 -112.14344 18563 ft 386 kts 86°
2026-04-20 06:14 47.38044 -112.10416 18042 ft 382 kts 86°
2026-04-20 06:15 47.38211 -112.06551 17540 ft 378 kts 86°
2026-04-20 06:15 47.38372 -112.02815 17087 ft 374 kts 86°
2026-04-20 06:15 47.38533 -111.99042 16575 ft 371 kts 86°
2026-04-20 06:15 47.38696 -111.95200 16083 ft 367 kts 86°
2026-04-20 06:16 47.38852 -111.91492 15604 ft 364 kts 86°
2026-04-20 06:16 47.39009 -111.87747 15125 ft 360 kts 86°
2026-04-20 06:16 47.39160 -111.84103 14657 ft 357 kts 86°
2026-04-20 06:16 47.39310 -111.80456 14177 ft 354 kts 86°
2026-04-20 06:17 47.39455 -111.76896 13676 ft 348 kts 86°
2026-04-20 06:17 47.39596 -111.73398 13265 ft 337 kts 85°
2026-04-20 06:17 47.39925 -111.69998 12791 ft 327 kts 70°
2026-04-20 06:17 47.40881 -111.67059 12368 ft 315 kts 51°
2026-04-20 06:18 47.42307 -111.64681 11909 ft 307 kts 41°
2026-04-20 06:18 47.43794 -111.62489 11567 ft 302 kts 41°
2026-04-20 06:18 47.45305 -111.60250 11100 ft 304 kts 41°
2026-04-20 06:18 47.46801 -111.58031 10662 ft 306 kts 41°
2026-04-20 06:19 47.48303 -111.55799 10246 ft 304 kts 41°
2026-04-20 06:19 47.49771 -111.53612 9833 ft 297 kts 41°
2026-04-20 06:19 47.51178 -111.51434 9440 ft 290 kts 44°
2026-04-20 06:19 47.52528 -111.49264 9055 ft 282 kts 43°
2026-04-20 06:20 47.53859 -111.47213 8767 ft 274 kts 42°
2026-04-20 06:20 47.55164 -111.45200 8371 ft 264 kts 43°
2026-04-20 06:20 47.56385 -111.43310 7992 ft 246 kts 42°
2026-04-20 06:20 47.57509 -111.41567 7699 ft 222 kts 42°
2026-04-20 06:21 47.58530 -111.39982 7432 ft 205 kts 42°
2026-04-20 06:21 47.59452 -111.38395 7152 ft 205 kts 53°
2026-04-20 06:21 47.60060 -111.36476 6905 ft 207 kts 73°
2026-04-20 06:21 47.60226 -111.34401 6623 ft 205 kts 94°
2026-04-20 06:22 47.59963 -111.32456 6354 ft 202 kts 113°
2026-04-20 06:22 47.59311 -111.30701 6096 ft 197 kts 131°
2026-04-20 06:22 47.58360 -111.29355 5841 ft 178 kts 150°
2026-04-20 06:22 47.57343 -111.28535 5629 ft 157 kts 163°
2026-04-20 06:23 47.56307 -111.28130 5409 ft 152 kts 177°
2026-04-20 06:23 47.55267 -111.28108 5206 ft 148 kts 190°
2026-04-20 06:23 47.54277 -111.28442 5018 ft 145 kts 202°
2026-04-20 06:23 47.53372 -111.29094 4825 ft 143 kts 214°
2026-04-20 06:24 47.52603 -111.30001 4641 ft 142 kts 225°
2026-04-20 06:24 47.51906 -111.31055 4427 ft 143 kts 228°
2026-04-20 06:24 47.51205 -111.32091 4233 ft 141 kts 223°
2026-04-20 06:24 47.50503 -111.33097 4119 ft 141 kts 227°
2026-04-20 06:25 47.49807 -111.34160 3955 ft 145 kts 225°
2026-04-20 06:25 47.49088 -111.35202 3755 ft 143 kts 226°
2026-04-20 06:25 47.48411 -111.36207 3670 ft 127 kts 225°
2026-04-20 06:25 47.47969 -111.36861 3672 ft 50 kts 225°
2026-04-20 06:26 47.47840 -111.37026 3672 ft 14 kts 192°
2026-04-20 06:26 47.47777 -111.36984 3673 ft 6 kts 137°
2026-04-20 06:26 47.47756 -111.36926 3674 ft 8 kts 86°
2026-04-20 06:26 47.47800 -111.36832 3673 ft 14 kts 45°
2026-04-20 06:27 47.47883 -111.36711 3673 ft 18 kts 45°
2026-04-20 06:27 47.47977 -111.36571 3673 ft 18 kts 45°
2026-04-20 06:27 47.48067 -111.36437 3672 ft 19 kts 45°
2026-04-20 06:27 47.48146 -111.36319 3671 ft 17 kts 45°
2026-04-20 06:28 47.48235 -111.36189 3671 ft 19 kts 45°
2026-04-20 06:28 47.48338 -111.36041 3670 ft 20 kts 45°
2026-04-20 06:28 47.48442 -111.35881 3668 ft 22 kts 46°
2026-04-20 06:28 47.48559 -111.35721 3666 ft 21 kts 40°
2026-04-20 06:29 47.48598 -111.35627 3665 ft 10 kts 128°
2026-04-20 06:29 47.48558 -111.35538 3665 ft 8 kts 69°
2026-04-20 06:29 47.48579 -111.35490 3664 ft 4 kts 60°
2026-04-20 06:29 47.48597 -111.35484 3664 ft 4 kts 273°
2026-04-20 06:30 47.48588 -111.35511 3664 ft 0 kts 219°